Tracking 18795 objects as of 22-August-2017
HD Live streaming from Space Station
objects crossing your sky now

SL-8 R/B

Track SL-8 R/B now!
10-day predictions


NORAD ID: 6271
Int'l Code: 1972-087J
Perigee: 1,474.3 km
Apogee: 1,599.6 km
Inclination: 74.0 °
Period: 116.6 minutes
Semi major axis: 7907 km
RCS: 6.2723 m2 (large)
Launch date: November 1, 1972
Source: Commonwealth of Independent States (former USSR) (CIS)
Launch site: PLESETSK MISSILE AND SPACE COMPLEX (PKMTR)

Note: This is a ROCKET BODY
Your satellite tracking list
Your tracking list is empty





NASA's NSSDC Master Catalog

Two Line Element Set (TLE):
1  6271U 72087J   17233.40705159 -.00000105 +00000-0 -72247-3 0  9990
2  6271 074.0385 210.6895 0079237 121.8036 032.3180 12.34542112019210
Source of the keplerian elements: AFSPC